Starlink 6178

operational
NORAD ID: 56387 Int'l Des: 2023-061 Owner: SPXS Country: US Constellation: starlink
LEOCIRCULAR

About Starlink 6178

Description loading...

Live Position

Loading 3D Globe...

Upcoming Passes

Altitude History

Altitude vs Time

uPlot chart will show altitude changes over time

Two-Line Element Set

1 56387U 23061P 25259.14500794 -.00000222 00000-0 -13782-5 0 9998
2 56387 43.0043 65.4567 0001030 271.4360 88.6364 15.02534256130502
Epoch: Sep 16, 2025 • Age: 12 hours

Current Status

Altitude 560.5 km
Velocity 7.58 km/s
Sub-Earth Point -9.54°S, 24.61°E
Launch Date May 4, 2023
Age 2.3 years
Type internet

Technical Details

Classification Payload
Mass 305.00 kg
Dry Mass 290.00 kg
Total Mass 305.00 kg
Length 0.20 m
Diameter 2.80 m
Span 9.00 m
Shape Box + pan
Manufacturer SPXS
Bus Type Starlink
Phase Status In Orbit
Owner/State SPXS/US

Large Constellations

Loading constellations...